C31FR-13 Weather Reports


time (UTC)temp
C
wind
direction
speed
KPH
gust
KPH
rain 1hr
cm
rain 24hr
cm
rain mn
cm
humidity
%
barometer
mb
20260508005602 11 0.0 0.0 0.00 0.00 0.00 79 1014.7
20260508005103 11 0.0 0.0 0.00 0.00 0.00 79 1014.7
20260508004602 10 0.0 0.0 0.00 0.00 0.00 81 1014.7
20260508004102 11 0.0 0.0 0.00 0.00 0.00 80 1014.7
20260508003603 11 0.0 0.0 0.00 0.00 0.00 80 1014.7
20260508003103 11 0.0 0.0 0.00 0.00 0.00 80 1014.8
20260508002602 11 0.0 0.0 0.00 0.00 0.00 80 1014.9
20260508001602 11 0.0 0.0 0.00 0.00 0.00 80 1015.0
20260508001102 11 0.0 0.0 0.00 0.00 0.00 82 1015.0
20260508000603 10 0.0 0.0 0.00 0.00 0.00 83 1015.0
20260507235603 11 0.0 0.0 0.00 0.00 0.00 80 1015.1
20260507235102 11 0.0 0.0 0.00 0.00 0.00 81 1015.1
20260507234602 11 0.0 0.0 0.00 0.00 0.00 82 1015.2
20260507234103 11 0.0 0.0 0.00 0.00 0.00 84 1015.3
20260507233603 11 0.0 0.0 0.00 0.00 0.00 81 1015.3
20260507233103 11 0.0 0.0 0.00 0.00 0.00 81 1015.4
20260507232603 11 0.0 0.0 0.00 0.00 0.00 82 1015.4
20260507232102 11 0.0 0.0 0.00 0.00 0.00 80 1015.4
20260507231602 11 0.0 0.0 0.00 0.00 0.00 80 1015.4
20260507231102 11 0.0 0.0 0.00 0.00 0.00 81 1015.5
20260507230602 10 0.0 0.0 0.00 0.00 0.00 82 1015.5
20260507225603 10 0.0 0.0 0.00 0.00 0.00 81 1015.4
20260507225103 10 0.0 0.0 0.00 0.00 0.00 80 1015.5
20260507224602 10 0.0 0.0 0.00 0.00 0.00 79 1015.6
20260507224102 10 0.0 0.0 0.00 0.00 0.00 74 1015.5
20260507223603 10 0.0 0.0 0.00 0.00 0.00 74 1015.5
20260507222602 11 0.0 0.0 0.00 0.00 0.00 75 1015.5
20260507222103 11 0.0 0.0 0.00 0.00 0.00 74 1015.5
20260507221102 11 0.0 0.0 0.00 0.00 0.00 75 1015.5
20260507220603 11 0.0 0.0 0.00 0.00 0.00 76 1015.4
20260507215602 11 0.0 0.0 0.00 0.00 0.00 76 1015.4
20260507215103 11 0.0 0.0 0.00 0.00 0.00 77 1015.3
20260507214602 11 0.0 0.0 0.00 0.00 0.00 79 1015.3
20260507213102 11 0.0 0.0 0.00 0.00 0.00 84 1015.1
20260507212602 11 0.0 0.0 0.00 0.00 0.00 87 1015.0
20260507212102 11 0.0 0.0 0.00 0.00 0.00 85 1014.9
20260507211603 11 0.0 0.0 0.00 0.00 0.00 85 1014.8
20260507211102 11 0.0 0.0 0.00 0.00 0.00 84 1014.8
20260507210603 11 0.0 0.0 0.00 0.00 0.00 82 1014.8
20260507205603 11 0.0 0.0 0.00 0.00 0.00 81 1014.7
20260507205103 11 0.0 0.0 0.00 0.00 0.00 77 1014.7
20260507204602 11 0.0 0.0 0.00 0.00 0.00 74 1014.7
20260507204103 11 0.0 0.0 0.00 0.00 0.00 74 1014.5
20260507203602 11 0.0 0.0 0.00 0.00 0.00 74 1014.5
20260507203103 12 0.0 0.0 0.00 0.00 0.00 73 1014.3
20260507202602 12 0.0 0.0 0.00 0.00 0.00 73 1014.2
20260507202103 12 0.0 0.0 0.00 0.00 0.00 72 1014.2
20260507201602 12 0.0 0.0 0.00 0.00 0.00 71 1014.1
20260507201103 12 0.0 0.0 0.00 0.00 0.00 71 1013.9
20260507200602 12 0.0 0.0 0.00 0.00 0.00 68 1013.8
20260507195602 13 0.0 0.0 0.00 0.00 0.00 63 1013.4
20260507195102 13 0.0 0.0 0.00 0.00 0.00 62 1013.3
20260507194603 13 0.0 0.0 0.00 0.00 0.00 58 1013.2
20260507194102 13 0.0 0.0 0.00 0.00 0.00 57 1012.9
20260507193102 14 0.0 0.0 0.00 0.00 0.00 55 1012.6
20260507192602 14 0.0 0.0 0.00 0.00 0.00 55 1012.4
20260507192102 14 0.0 0.0 0.00 0.00 0.00 55 1012.3
20260507191602 14 0.0 0.0 0.00 0.00 0.00 55 1012.2
20260507191102 14 0.0 0.0 0.00 0.00 0.00 54 1012.0
20260507190602 15 0.0 0.0 0.00 0.00 0.00 53 1012.0
20260507185102 15 0.0 0.0 0.00 0.00 0.00 47 1011.8
20260507184603 15 0.0 0.0 0.00 0.00 0.00 45 1011.7
20260507184103 15 0.0 0.0 0.00 0.00 0.00 45 1011.5
20260507183602 15 0.0 0.0 0.00 0.00 0.00 45 1011.5
20260507183102 16 0.0 0.0 0.00 0.00 0.00 44 1011.4
20260507182602 15 0.0 0.0 0.00 0.00 0.00 44 1011.3
20260507182102 16 0.0 0.0 0.00 0.00 0.00 43 1011.2
20260507181602 16 0.0 0.0 0.00 0.00 0.00 43 1011.2
20260507181103 16 0.0 0.0 0.00 0.00 0.00 42 1011.2
20260507180602 16 0.0 0.0 0.00 0.00 0.00 42 1011.1
20260507175603 16 0.0 0.0 0.00 0.00 0.00 43 1010.9
20260507175102 16 0.0 0.0 0.00 0.00 0.00 43 1011.0
20260507174603 16 0.0 0.0 0.00 0.00 0.00 42 1011.0
20260507174101 16 0.0 0.0 0.00 0.00 0.00 42 1010.9
20260507173602 16 0.0 0.0 0.00 0.00 0.00 42 1010.8
20260507173102 16 0.0 0.0 0.00 0.00 0.00 41 1010.8
20260507172603 16 0.0 0.0 0.00 0.00 0.00 41 1010.8
20260507172101 17 0.0 0.0 0.00 0.00 0.00 41 1010.7
20260507171603 17 0.0 0.0 0.00 0.00 0.00 40 1010.6
20260507171102 17 0.0 0.0 0.00 0.00 0.00 40 1010.6
20260507170603 17 0.0 0.0 0.00 0.00 0.00 40 1010.5
20260507165602 17 0.0 0.0 0.00 0.00 0.00 39 1010.6
20260507165102 17 0.0 0.0 0.00 0.00 0.00 39 1010.6
20260507164602 18 0.0 0.0 0.00 0.00 0.00 38 1010.6
20260507163602 18 0.0 0.0 0.00 0.00 0.00 37 1010.5
20260507163102 18 0.0 0.0 0.00 0.00 0.00 38 1010.5
20260507162602 19 0.0 0.0 0.00 0.00 0.00 38 1010.4
20260507162103 19 0.0 0.0 0.00 0.00 0.00 38 1010.5
20260507161603 19 0.0 0.0 0.00 0.00 0.00 38 1010.5
20260507161102 20 0.0 0.0 0.00 0.00 0.00 37 1010.5
20260507160602 20 0.0 0.0 0.00 0.00 0.00 35 1010.4
20260507155603 19 0.0 0.0 0.00 0.00 0.00 37 1010.5
20260507155102 19 0.0 0.0 0.00 0.00 0.00 36 1010.5
20260507154602 19 0.0 0.0 0.00 0.00 0.00 34 1010.4
20260507154102 19 0.0 0.0 0.00 0.00 0.00 34 1010.2
20260507153602 18 0.0 0.0 0.00 0.00 0.00 35 1010.3
20260507153103 18 0.0 0.0 0.00 0.00 0.00 36 1010.3
20260507152603 18 0.0 0.0 0.00 0.00 0.00 35 1010.3
20260507152101 18 0.0 0.0 0.00 0.00 0.00 36 1010.3
20260507151603 18 0.0 0.0 0.00 0.00 0.00 36 1010.4
20260507151103 18 0.0 0.0 0.00 0.00 0.00 35 1010.4
20260507150602 18 0.0 0.0 0.00 0.00 0.00 34 1010.3
20260507145603 18 0.0 0.0 0.00 0.00 0.00 33 1010.2
20260507145102 18 0.0 0.0 0.00 0.00 0.00 33 1010.2
20260507144603 18 0.0 0.0 0.00 0.00 0.00 32 1010.1
20260507144102 18 0.0 0.0 0.00 0.00 0.00 33 1010.1
20260507143603 18 0.0 0.0 0.00 0.00 0.00 32 1010.2
20260507142603 18 0.0 0.0 0.00 0.00 0.00 33 1010.3
20260507142101 17 0.0 0.0 0.00 0.00 0.00 34 1010.4
20260507141602 17 0.0 0.0 0.00 0.00 0.00 34 1010.4
20260507141102 17 0.0 0.0 0.00 0.00 0.00 36 1010.6
20260507140603 17 0.0 0.0 0.00 0.00 0.00 35 1010.5
20260507135603 17 0.0 0.0 0.00 0.00 0.00 37 1010.7
20260507135103 17 0.0 0.0 0.00 0.00 0.00 36 1010.8
20260507134602 17 0.0 0.0 0.00 0.00 0.00 36 1010.8
20260507134102 17 0.0 0.0 0.00 0.00 0.00 37 1010.8
20260507133603 17 0.0 0.0 0.00 0.00 0.00 38 1011.0
20260507133102 17 0.0 0.0 0.00 0.00 0.00 37 1011.0
20260507132603 17 0.0 0.0 0.00 0.00 0.00 38 1011.1
20260507132102 16 0.0 0.0 0.00 0.00 0.00 39 1011.1
20260507131603 16 0.0 0.0 0.00 0.00 0.00 38 1011.1
20260507131103 16 0.0 0.0 0.00 0.00 0.00 39 1011.2
20260507130602 16 0.0 0.0 0.00 0.00 0.00 39 1011.3
20260507125603 16 0.0 0.0 0.00 0.00 0.00 40 1011.3
20260507125103 16 0.0 0.0 0.00 0.00 0.00 40 1011.4
20260507124603 16 0.0 0.0 0.00 0.00 0.00 41 1011.4
20260507124103 16 0.0 0.0 0.00 0.00 0.00 41 1011.4
20260507123602 16 0.0 0.0 0.00 0.00 0.00 42 1011.5
20260507123102 16 0.0 0.0 0.00 0.00 0.00 42 1011.6
20260507122603 16 0.0 0.0 0.00 0.00 0.00 43 1011.6
20260507122102 15 0.0 0.0 0.00 0.00 0.00 44 1011.7
20260507121603 16 0.0 0.0 0.00 0.00 0.00 44 1011.7
20260507121103 15 0.0 0.0 0.00 0.00 0.00 44 1011.7
20260507120603 15 0.0 0.0 0.00 0.00 0.00 45 1011.8
20260507115603 15 0.0 0.0 0.00 0.00 0.00 45 1011.8
20260507115102 15 0.0 0.0 0.00 0.00 0.00 45 1011.9
20260507114602 15 0.0 0.0 0.00 0.00 0.00 45 1012.1
20260507114102 15 0.0 0.0 0.00 0.00 0.00 44 1012.1
20260507113603 15 0.0 0.0 0.00 0.00 0.00 45 1012.2
20260507113103 15 0.0 0.0 0.00 0.00 0.00 46 1012.3
20260507112602 15 0.0 0.0 0.00 0.00 0.00 45 1012.3
20260507112103 15 0.0 0.0 0.00 0.00 0.00 46 1012.3
20260507111602 15 0.0 0.0 0.00 0.00 0.00 46 1012.4
20260507111103 15 0.0 0.0 0.00 0.00 0.00 46 1012.5
20260507110602 15 0.0 0.0 0.00 0.00 0.00 46 1012.5
20260507105603 14 0.0 0.0 0.00 0.00 0.00 48 1012.7
20260507105103 14 0.0 0.0 0.00 0.00 0.00 48 1012.7
20260507104603 14 0.0 0.0 0.00 0.00 0.00 47 1012.7
20260507104102 14 0.0 0.0 0.00 0.00 0.00 45 1012.8
20260507103602 13 0.0 0.0 0.00 0.00 0.00 46 1012.8
20260507103102 13 0.0 0.0 0.00 0.00 0.00 47 1012.8
20260507102602 13 0.0 0.0 0.00 0.00 0.00 49 1012.9
20260507102102 13 0.0 0.0 0.00 0.00 0.00 50 1013.0
20260507101603 13 0.0 0.0 0.00 0.00 0.00 49 1013.1
20260507101102 13 0.0 0.0 0.00 0.00 0.00 49 1013.3
20260507100602 13 0.0 0.0 0.00 0.00 0.00 50 1013.4
20260507095603 13 0.0 0.0 0.00 0.00 0.00 52 1013.4
20260507095103 12 0.0 0.0 0.00 0.00 0.00 53 1013.4
20260507094603 12 0.0 0.0 0.00 0.00 0.00 52 1013.5
20260507094102 12 0.0 0.0 0.00 0.00 0.00 54 1013.5
20260507093602 12 0.0 0.0 0.00 0.00 0.00 54 1013.5
20260507093103 12 0.0 0.0 0.00 0.00 0.00 55 1013.7
20260507092102 12 0.0 0.0 0.00 0.00 0.00 56 1013.7
20260507091602 12 0.0 0.0 0.00 0.00 0.00 60 1013.7
20260507091103 11 0.0 0.0 0.00 0.00 0.00 60 1013.7
20260507085102 11 0.0 0.0 0.00 0.00 0.00 64 1013.7
20260507084602 11 0.0 0.0 0.00 0.00 0.00 64 1013.8
20260507084102 11 0.0 0.0 0.00 0.00 0.00 69 1013.7
20260507083603 11 0.0 0.0 0.00 0.00 0.00 68 1013.8
20260507083103 11 0.0 0.0 0.00 0.00 0.00 68 1013.9
20260507082603 11 0.0 0.0 0.00 0.00 0.00 70 1013.9
20260507082108 11 0.0 0.0 0.00 0.00 0.00 70 1013.9
20260507081602 10 0.0 0.0 0.00 0.00 0.00 71 1014.0
20260507081102 10 0.0 0.0 0.00 0.00 0.00 73 1014.0
20260507080602 10 0.0 0.0 0.00 0.00 0.00 75 1014.0
20260507075603 10 0.0 0.0 0.00 0.00 0.00 75 1014.2
20260507075102 10 0.0 0.0 0.00 0.00 0.00 76 1014.2
20260507074602 10 0.0 0.0 0.00 0.00 0.00 75 1014.2
20260507074103 10 0.0 0.0 0.00 0.00 0.00 76 1014.2
20260507073602 10 0.0 0.0 0.00 0.00 0.00 77 1014.2
20260507073102 10 0.0 0.0 0.00 0.00 0.00 78 1014.3
20260507072602 10 0.0 0.0 0.00 0.00 0.00 78 1014.2
20260507072102 10 0.0 0.0 0.00 0.00 0.00 81 1014.2
20260507071602 10 0.0 0.0 0.00 0.00 0.00 79 1014.2
20260507071102 10 0.0 0.0 0.00 0.00 0.00 78 1014.2
20260507070603 10 0.0 0.0 0.00 0.00 0.00 81 1014.2
20260507065602 10 0.0 0.0 0.00 0.00 0.00 81 1014.2
20260507065103 10 0.0 0.0 0.00 0.00 0.00 80 1014.1
20260507064603 10 0.0 0.0 0.00 0.00 0.00 81 1014.2
20260507064102 9 0.0 0.0 0.00 0.00 0.00 83 1014.2
20260507063103 9 0.0 0.0 0.00 0.00 0.00 84 1014.3
20260507062602 9 0.0 0.0 0.00 0.00 0.00 83 1014.2
20260507062102 9 0.0 0.0 0.00 0.00 0.00 84 1014.2
20260507061602 9 0.0 0.0 0.00 0.00 0.00 85 1014.2
20260507061102 9 0.0 0.0 0.00 0.00 0.00 84 1014.3
20260507060602 9 0.0 0.0 0.00 0.00 0.00 85 1014.3
20260507055602 9 0.0 0.0 0.00 0.00 0.00 85 1014.4
20260507055103 9 0.0 0.0 0.00 0.00 0.00 85 1014.4
20260507054603 9 0.0 0.0 0.00 0.00 0.00 87 1014.3
20260507054102 8 0.0 0.0 0.00 0.00 0.00 88 1014.3
20260507053603 9 0.0 0.0 0.00 0.00 0.00 86 1014.3
20260507053102 9 0.0 0.0 0.00 0.00 0.00 84 1014.3
20260507052603 8 0.0 0.0 0.00 0.00 0.00 85 1014.3
20260507052102 8 0.0 0.0 0.00 0.00 0.00 87 1014.3
20260507051603 8 0.0 0.0 0.00 0.00 0.00 86 1014.2
20260507051102 8 0.0 0.0 0.00 0.00 0.00 86 1014.2
20260507050603 8 0.0 0.0 0.00 0.00 0.00 87 1014.1
20260507045102 9 0.0 0.0 0.00 0.00 0.00 86 1013.9
20260507044603 8 0.0 0.0 0.00 0.00 0.00 88 1013.9
20260507044101 9 0.0 0.0 0.00 0.00 0.00 86 1013.9
20260507043603 9 0.0 0.0 0.00 0.00 0.00 87 1013.9
20260507043102 9 0.0 0.0 0.00 0.00 0.00 88 1013.8
20260507042604 9 0.0 0.0 0.00 0.00 0.00 87 1013.9
20260507042103 10 0.0 0.0 0.00 0.00 0.00 86 1013.8
20260507041603 9 0.0 0.0 0.00 0.00 0.00 87 1013.8
20260507041102 9 0.0 0.0 0.00 0.00 0.00 89 1013.9
20260507040604 9 0.0 0.0 0.00 0.00 0.00 89 1013.8
20260507035602 9 0.0 0.0 0.00 0.00 0.00 88 1013.8
20260507035103 10 0.0 0.0 0.00 0.00 0.00 87 1013.8
20260507034602 10 0.0 0.0 0.00 0.00 0.00 88 1013.7
20260507034102 10 0.0 0.0 0.00 0.00 0.00 88 1013.7
20260507033603 9 0.0 0.0 0.00 0.00 0.00 87 1013.8
20260507033102 10 0.0 0.0 0.00 0.00 0.00 87 1013.8
20260507032602 10 0.0 0.0 0.00 0.00 0.00 88 1013.8
20260507032102 10 0.0 0.0 0.00 0.00 0.00 89 1013.8
20260507031603 9 0.0 0.0 0.00 0.00 0.00 91 1013.8
20260507031102 9 0.0 0.0 0.00 0.00 0.00 92 1013.8
20260507030602 9 0.0 0.0 0.00 0.00 0.00 91 1013.9
20260507025603 9 0.0 0.0 0.00 0.00 0.00 93 1013.9
20260507025103 10 0.0 0.0 0.00 0.00 0.00 89 1013.9
20260507024603 10 0.0 0.0 0.00 0.00 0.00 89 1013.9
20260507024103 9 0.0 0.0 0.00 0.00 0.00 90 1014.0
20260507022603 9 0.0 0.0 0.00 0.00 0.00 90 1014.0
20260507022102 9 0.0 0.0 0.00 0.00 0.00 90 1014.0
20260507021603 9 0.0 0.0 0.00 0.00 0.00 90 1013.9
20260507021102 10 0.0 0.0 0.00 0.00 0.00 88 1013.8
20260507020603 10 0.0 0.0 0.00 0.00 0.00 86 1013.8
20260507020104 9 0.0 0.0 0.00 0.00 0.00 89 1013.9
20260507015603 9 0.0 0.0 0.00 0.00 0.00 89 1013.9
20260507015104 9 0.0 0.0 0.00 0.00 0.00 90 1013.9
20260507014102 9 0.0 0.0 0.00 0.00 0.00 87 1014.0
20260507013601 10 0.0 0.0 0.00 0.00 0.00 86 1013.9
20260507013103 9 0.0 0.0 0.00 0.00 0.00 89 1014.0
20260507012602 8 0.0 0.0 0.00 0.00 0.00 88 1014.0
20260507012103 9 0.0 0.0 0.00 0.00 0.00 87 1013.9
20260507011603 9 0.0 0.0 0.00 0.00 0.00 84 1013.9
20260507011103 9 0.0 0.0 0.00 0.00 0.00 85 1013.8
20260507010602 10 0.0 0.0 0.00 0.00 0.00 85 1013.9